Powrót do katalogu

THOR AGENA B R/B

AktywnyPO
NORAD 741·ROCKET BODY·🇺🇸 United States

Wystrzelony Jan 25, 1964 z Vandenberg Space Force Base

Loading…

Następne Przeloty (najbliższe 24 godziny)

TLE

ŚwieżeSource: Space-Track

Epoka: Sep 14, 2026, 23:21 UTC

1 00741U 64004B   26257.97344640  .00000060  00000-0  10540-3 0  9994
2 00741  81.4863  89.3820 0172293  29.0020 123.4365 13.23830294 24950

Śledź THOR AGENA B R/B w czasie rzeczywistym z AllMySat

Download on the App Store